Погода в Пурпе-1

Россия / Ямало-Ненецкий автономный округ     64°34′26″N   77°00′54″E
темп.,
°C
ветер,
м/с
пор.,
м/с
влажн.,
%
обл.,
%
осадки,
мм/ч
давл.,
гПа
погр.,
м
29 июня, ср
ср2923:00+13ссв81571100 0.6 993497
02:00+12с121753100 0.1 993685
05:00+10с101558100 0.1 995676
08:00+9с91262100 0.0 996585
11:00+14с91047100 0.0 9961243
14:00+16с7843100 0.0 9971613
17:00+17с7742100 0.0 9981934
20:00+15с4751100 0.0 998155
30 июня, чт
чт3023:00+14ссв7135695 0.0 999381
02:00+12ссв6116688 0.0 999431
05:00+13св7106310 0.0 999538
08:00+15св91166100 0.0 999895
11:00+16св111366100 0.0 9991158
14:00+17св101360100 0.0 10001536
17:00+19св111451100 0.0 9991953
20:00+17св81362100 0.1 999684
1 июля, пт
пт123:00+15ссв91662100 0.1 999475
02:00+12ссв111855100 0.0 999484
05:00+12ссв111661100 0.0 999565
08:00+15ссв121457100 0.0 999891
11:00+14св91461100 0.3 10001157
14:00+13св71472100 0.2 1001725
17:00+14ссв71272100 0.3 1001577
20:00+13ссв81478100 0.2 1001543
2 июля, сб
сб223:00+13с51087100 0.9 1002313
02:00+12ссв81366100 0.1 1001376
05:00+12с7116087 0.3 1002346
08:00+15с910467 0.0 10021047
11:00+16с994597 0.0 10021685
14:00+16ссз9943100 0.0 10012034
17:00+15ссз8947100 0.0 10021288
20:00+14с91252100 0.0 10021001
3 июля, вс
вс323:00+12с81351100 0.0 1003667
02:00+11с91355100 0.0 1003484
05:00+10с10126290 0.0 1004624
08:00+11с9105793 0.0 10051007
11:00+13с894874 0.0 10051715
14:00+13с9950100 0.0 10061755
17:00+12с775486 0.0 10071232
20:00+12ссз5655100 0.0 1007875